OAL195 OIBB-OMAD

Flight info

Callsign OAL195
Flight time 1h 43m
Altitude 30000
Route VATOB DCT IMDAT/N0312F290 B416 ORSAR G666 ELOVU
Aircraft TBM8/L-SDFGRWY/S

Departure

Time 2026-04-12 15:54
Airport Bushehr Airport (OIBB)

Arrival

Time 2026-04-12 17:37
Airport Al Bateen Executive Airport (OMAD)
Time Latitude Longitude Altitude Speed Heading
2026-04-12 15:47 28.95745 50.82438 13 ft 0 kts 15°
2026-04-12 15:52 28.95746 50.82438 13 ft 0 kts 15°
2026-04-12 15:52 28.95753 50.82441 13 ft 5 kts 38°
2026-04-12 15:52 28.95703 50.82445 13 ft 16 kts 191°
2026-04-12 15:53 28.95615 50.82393 12 ft 17 kts 219°
2026-04-12 15:53 28.95540 50.82329 13 ft 10 kts 163°
2026-04-12 15:53 28.95509 50.82366 13 ft 1 kts 133°
2026-04-12 15:53 28.95388 50.82519 15 ft 55 kts 131°
2026-04-12 15:54 28.95013 50.82989 53 ft 101 kts 133°
2026-04-12 15:54 28.94524 50.83610 424 ft 106 kts 125°
2026-04-12 15:54 28.94211 50.84346 869 ft 107 kts 95°
2026-04-12 15:54 28.94212 50.85243 1202 ft 123 kts 102°
2026-04-12 15:55 28.94000 50.86258 1576 ft 139 kts 104°
2026-04-12 15:55 28.93795 50.87373 2034 ft 146 kts 104°
2026-04-12 15:55 28.93573 50.88530 2464 ft 153 kts 105°
2026-04-12 15:55 28.93334 50.89750 2842 ft 161 kts 105°
2026-04-12 15:56 28.93086 50.91019 3223 ft 167 kts 105°
2026-04-12 15:56 28.92824 50.92338 3615 ft 171 kts 105°
2026-04-12 15:56 28.92559 50.93670 4034 ft 175 kts 105°
2026-04-12 15:56 28.92288 50.95039 4434 ft 180 kts 105°
2026-04-12 15:57 28.92006 50.96454 4787 ft 185 kts 104°
2026-04-12 15:57 28.91718 50.97887 5189 ft 186 kts 104°
2026-04-12 15:57 28.91429 50.99341 5640 ft 188 kts 104°
2026-04-12 15:57 28.91143 51.00800 6140 ft 189 kts 104°
2026-04-12 15:58 28.90845 51.02268 6607 ft 191 kts 104°
2026-04-12 15:58 28.90546 51.03757 7049 ft 194 kts 104°
2026-04-12 15:58 28.90243 51.05268 7498 ft 196 kts 104°
2026-04-12 15:58 28.89941 51.06776 7954 ft 199 kts 104°
2026-04-12 15:59 28.89629 51.08329 8409 ft 202 kts 105°
2026-04-12 15:59 28.89312 51.09904 8861 ft 205 kts 105°
2026-04-12 15:59 28.88991 51.11499 9303 ft 208 kts 105°
2026-04-12 15:59 28.88666 51.13115 9746 ft 210 kts 105°
2026-04-12 16:00 28.88337 51.14753 10156 ft 213 kts 106°
2026-04-12 16:00 28.88005 51.16408 10587 ft 214 kts 106°
2026-04-12 16:00 28.87669 51.18070 10999 ft 216 kts 106°
2026-04-12 16:00 28.87332 51.19745 11413 ft 217 kts 107°
2026-04-12 16:01 28.86992 51.21428 11835 ft 218 kts 107°
2026-04-12 16:01 28.86651 51.23121 12254 ft 220 kts 107°
2026-04-12 16:01 28.86170 51.24764 12648 ft 215 kts 126°
2026-04-12 16:01 28.85262 51.26075 13066 ft 207 kts 145°
2026-04-12 16:02 28.84087 51.26953 13490 ft 198 kts 164°
2026-04-12 16:02 28.82793 51.27359 13907 ft 190 kts 181°
2026-04-12 16:02 28.81495 51.27336 14276 ft 186 kts 192°
2026-04-12 16:02 28.80194 51.27227 14620 ft 189 kts 191°
2026-04-12 16:03 28.78876 51.27127 14986 ft 191 kts 191°
2026-04-12 16:03 28.77547 51.27021 15344 ft 193 kts 192°
2026-04-12 16:03 28.76203 51.26912 15693 ft 195 kts 192°
2026-04-12 16:03 28.74845 51.26802 16041 ft 197 kts 192°
2026-04-12 16:04 28.73487 51.26694 16388 ft 199 kts 192°
2026-04-12 16:04 28.72100 51.26582 16739 ft 201 kts 192°
2026-04-12 16:04 28.70697 51.26470 17085 ft 203 kts 192°
2026-04-12 16:04 28.69279 51.26356 17434 ft 205 kts 192°
2026-04-12 16:05 28.67847 51.26242 17789 ft 207 kts 192°
2026-04-12 16:05 28.66404 51.26126 18137 ft 209 kts 192°
2026-04-12 16:05 28.64944 51.26009 18451 ft 211 kts 192°
2026-04-12 16:05 28.63476 51.25892 18782 ft 211 kts 192°
2026-04-12 16:06 28.62007 51.25775 19084 ft 212 kts 193°
2026-04-12 16:06 28.60532 51.25656 19405 ft 212 kts 193°
2026-04-12 16:06 28.59059 51.25539 19734 ft 212 kts 194°
2026-04-12 16:06 28.57587 51.25421 20060 ft 212 kts 194°
2026-04-12 16:07 28.56118 51.25304 20385 ft 212 kts 194°
2026-04-12 16:07 28.54644 51.25186 20711 ft 212 kts 194°
2026-04-12 16:07 28.53176 51.25069 21023 ft 212 kts 195°
2026-04-12 16:07 28.51706 51.24951 21342 ft 212 kts 195°
2026-04-12 16:08 28.50237 51.24833 21666 ft 212 kts 195°
2026-04-12 16:08 28.48786 51.24717 21968 ft 212 kts 195°
2026-04-12 16:08 28.47316 51.24600 22270 ft 212 kts 196°
2026-04-12 16:08 28.45848 51.24483 22547 ft 212 kts 196°
2026-04-12 16:09 28.44379 51.24365 22798 ft 211 kts 196°
2026-04-12 16:09 28.42912 51.24249 23100 ft 212 kts 196°
2026-04-12 16:09 28.41439 51.24131 23404 ft 212 kts 197°
2026-04-12 16:09 28.39967 51.24014 23706 ft 212 kts 197°
2026-04-12 16:10 28.38498 51.23897 23957 ft 211 kts 197°
2026-04-12 16:10 28.37032 51.23781 24211 ft 211 kts 197°
2026-04-12 16:10 28.35568 51.23663 24464 ft 211 kts 197°
2026-04-12 16:10 28.34099 51.23546 24726 ft 211 kts 197°
2026-04-12 16:11 28.32630 51.23429 24979 ft 212 kts 197°
2026-04-12 16:11 28.31158 51.23311 25220 ft 212 kts 197°
2026-04-12 16:11 28.29705 51.23196 25456 ft 212 kts 197°
2026-04-12 16:11 28.28231 51.23079 25684 ft 212 kts 197°
2026-04-12 16:12 28.26758 51.22962 25902 ft 212 kts 197°
2026-04-12 16:12 28.25283 51.22844 26125 ft 212 kts 197°
2026-04-12 16:12 28.23814 51.22727 26409 ft 209 kts 197°
2026-04-12 16:12 28.22386 51.22620 26775 ft 202 kts 198°
2026-04-12 16:13 28.21449 51.22548 27026 ft 198 kts 198°
2026-04-12 16:13 28.20098 51.22442 27396 ft 191 kts 198°
2026-04-12 16:13 28.18795 51.22338 27769 ft 184 kts 199°
2026-04-12 16:13 28.17554 51.22241 28141 ft 177 kts 199°
2026-04-12 16:14 28.16346 51.22146 28526 ft 170 kts 200°
2026-04-12 16:14 28.15194 51.22055 28846 ft 164 kts 200°
2026-04-12 16:14 28.14062 51.21960 29105 ft 162 kts 201°
2026-04-12 16:14 28.12939 51.21867 29225 ft 167 kts 201°
2026-04-12 16:15 28.11766 51.21764 29410 ft 169 kts 200°
2026-04-12 16:15 28.10589 51.21675 29648 ft 169 kts 200°
2026-04-12 16:15 28.09414 51.21584 29792 ft 172 kts 200°
2026-04-12 16:15 28.08217 51.21486 29979 ft 174 kts 200°
2026-04-12 16:16 28.06978 51.21378 29989 ft 183 kts 200°
2026-04-12 16:16 28.05697 51.21273 29995 ft 192 kts 199°
2026-04-12 16:16 28.04339 51.21166 29993 ft 198 kts 198°
2026-04-12 16:16 28.02945 51.21060 29993 ft 203 kts 198°
2026-04-12 16:17 28.01518 51.20951 29993 ft 208 kts 198°
2026-04-12 16:17 28.00066 51.20837 29993 ft 211 kts 198°
2026-04-12 16:17 27.98589 51.20721 29991 ft 214 kts 198°
2026-04-12 16:17 27.97082 51.20603 29993 ft 217 kts 197°
2026-04-12 16:18 27.95587 51.20486 29990 ft 219 kts 197°
2026-04-12 16:18 27.94059 51.20365 29991 ft 221 kts 197°
2026-04-12 16:18 27.92521 51.20243 29992 ft 222 kts 197°
2026-04-12 16:18 27.90972 51.20122 29979 ft 223 kts 197°
2026-04-12 16:19 27.89425 51.19999 29985 ft 223 kts 197°
2026-04-12 16:19 27.87871 51.19877 29988 ft 224 kts 197°
2026-04-12 16:19 27.86314 51.19754 29989 ft 224 kts 197°
2026-04-12 16:19 27.84777 51.19633 29990 ft 225 kts 197°
2026-04-12 16:20 27.83217 51.19510 29991 ft 225 kts 197°
2026-04-12 16:20 27.81656 51.19387 29990 ft 225 kts 197°
2026-04-12 16:20 27.80091 51.19264 29992 ft 225 kts 197°
2026-04-12 16:20 27.78526 51.19140 29989 ft 226 kts 197°
2026-04-12 16:21 27.76932 51.19010 29779 ft 233 kts 197°
2026-04-12 16:21 27.75289 51.18877 29564 ft 240 kts 197°
2026-04-12 16:21 27.73607 51.18747 29352 ft 245 kts 196°
2026-04-12 16:21 27.71891 51.18614 29140 ft 249 kts 196°
2026-04-12 16:22 27.70111 51.18708 28991 ft 268 kts 181°
2026-04-12 16:22 27.68324 51.19521 28993 ft 289 kts 163°
2026-04-12 16:22 27.66784 51.21103 28992 ft 314 kts 140°
2026-04-12 16:23 27.64420 51.25329 28989 ft 317 kts 135°
2026-04-12 16:23 27.62078 51.29500 28988 ft 313 kts 136°
2026-04-12 16:24 27.59765 51.33615 28989 ft 312 kts 135°
2026-04-12 16:24 27.57448 51.37739 28986 ft 310 kts 136°
2026-04-12 16:25 27.55142 51.41838 28987 ft 309 kts 136°
2026-04-12 16:25 27.52843 51.45921 28977 ft 307 kts 137°
2026-04-12 16:26 27.50548 51.49987 28980 ft 307 kts 137°
2026-04-12 16:26 27.48253 51.54058 28985 ft 308 kts 137°
2026-04-12 16:27 27.45966 51.58105 28984 ft 308 kts 137°
2026-04-12 16:27 27.43665 51.62175 28989 ft 308 kts 137°
2026-04-12 16:28 27.41365 51.66242 28987 ft 308 kts 137°
2026-04-12 16:28 27.39061 51.70310 28987 ft 308 kts 137°
2026-04-12 16:29 27.36758 51.74373 28987 ft 307 kts 138°
2026-04-12 16:29 27.34469 51.78405 28986 ft 308 kts 138°
2026-04-12 16:30 27.32163 51.82467 28989 ft 308 kts 139°
2026-04-12 16:30 27.29849 51.86537 28988 ft 308 kts 139°
2026-04-12 16:31 27.27538 51.90598 28991 ft 309 kts 139°
2026-04-12 16:31 27.25223 51.94664 28992 ft 309 kts 139°
2026-04-12 16:32 27.22906 51.98728 28982 ft 308 kts 139°
2026-04-12 16:32 27.20598 52.02773 28991 ft 307 kts 139°
2026-04-12 16:33 27.18291 52.06806 28991 ft 307 kts 139°
2026-04-12 16:33 27.15995 52.10815 28994 ft 306 kts 139°
2026-04-12 16:34 27.13690 52.14837 28993 ft 306 kts 139°
2026-04-12 16:34 27.11384 52.18856 28993 ft 306 kts 140°
2026-04-12 16:35 27.09079 52.22868 28989 ft 306 kts 140°
2026-04-12 16:35 27.06778 52.26876 28991 ft 304 kts 140°
2026-04-12 16:36 27.04486 52.30850 28985 ft 303 kts 140°
2026-04-12 16:36 27.02208 52.34803 28993 ft 303 kts 139°
2026-04-12 16:37 26.99919 52.38771 28998 ft 303 kts 140°
2026-04-12 16:37 26.97626 52.42740 28993 ft 303 kts 140°
2026-04-12 16:38 26.95333 52.46709 28994 ft 303 kts 140°
2026-04-12 16:38 26.93043 52.50669 28994 ft 303 kts 140°
2026-04-12 16:39 26.90756 52.54620 28995 ft 302 kts 139°
2026-04-12 16:39 26.88469 52.58563 28995 ft 302 kts 139°
2026-04-12 16:40 26.86182 52.62508 28995 ft 302 kts 139°
2026-04-12 16:40 26.83887 52.66459 28997 ft 303 kts 139°
2026-04-12 16:41 26.81590 52.70415 28999 ft 303 kts 139°
2026-04-12 16:41 26.79306 52.74342 28998 ft 303 kts 139°
2026-04-12 16:42 26.76984 52.78330 29001 ft 304 kts 139°
2026-04-12 16:42 26.74702 52.82252 28997 ft 302 kts 139°
2026-04-12 16:43 26.70108 52.90124 28997 ft 302 kts 139°
2026-04-12 16:44 26.67807 52.94064 28997 ft 302 kts 139°
2026-04-12 16:44 26.65503 52.98006 28999 ft 302 kts 139°
2026-04-12 16:45 26.63200 53.01941 29007 ft 302 kts 139°
2026-04-12 16:45 26.60896 53.05875 29010 ft 302 kts 139°
2026-04-12 16:46 26.58615 53.09768 29000 ft 301 kts 137°
2026-04-12 16:46 26.56319 53.13680 28999 ft 301 kts 137°
2026-04-12 16:47 26.54021 53.17586 28999 ft 301 kts 138°
2026-04-12 16:47 26.51719 53.21492 28999 ft 301 kts 138°
2026-04-12 16:48 26.49412 53.25405 29006 ft 301 kts 138°
2026-04-12 16:48 26.47108 53.29309 29006 ft 301 kts 138°
2026-04-12 16:49 26.44800 53.33217 29003 ft 302 kts 138°
2026-04-12 16:49 26.42507 53.37095 29002 ft 301 kts 137°
2026-04-12 16:50 26.40188 53.41013 28997 ft 303 kts 137°
2026-04-12 16:50 26.37861 53.44943 29003 ft 304 kts 136°
2026-04-12 16:51 26.35529 53.48878 29004 ft 304 kts 137°
2026-04-12 16:51 26.33196 53.52811 29003 ft 304 kts 137°
2026-04-12 16:52 26.30862 53.56741 29004 ft 304 kts 137°
2026-04-12 16:52 26.28527 53.60663 29002 ft 304 kts 137°
2026-04-12 16:53 26.26209 53.64556 29003 ft 303 kts 136°
2026-04-12 16:53 26.23869 53.68478 29002 ft 304 kts 136°
2026-04-12 16:54 26.21531 53.72397 29002 ft 304 kts 136°
2026-04-12 16:54 26.19188 53.76321 29008 ft 304 kts 139°
2026-04-12 16:55 26.16836 53.80252 29007 ft 306 kts 139°
2026-04-12 16:55 26.14475 53.84200 29007 ft 306 kts 139°
2026-04-12 16:56 26.12109 53.88153 29007 ft 307 kts 139°
2026-04-12 16:56 26.09756 53.92078 29008 ft 307 kts 139°
2026-04-12 16:56 26.08454 53.93878 29003 ft 288 kts 153°
2026-04-12 16:57 26.06915 53.95186 29002 ft 269 kts 166°
2026-04-12 16:57 26.05272 53.96035 29001 ft 252 kts 178°
2026-04-12 16:57 26.03614 53.96465 29001 ft 238 kts 188°
2026-04-12 16:57 26.01974 53.96706 29004 ft 238 kts 188°
2026-04-12 16:58 26.00332 53.96970 29006 ft 239 kts 188°
2026-04-12 16:58 25.98687 53.97236 29007 ft 239 kts 188°
2026-04-12 16:58 25.97042 53.97496 29007 ft 239 kts 188°
2026-04-12 16:58 25.95398 53.97754 29007 ft 239 kts 188°
2026-04-12 16:59 25.93752 53.98015 29007 ft 239 kts 188°
2026-04-12 16:59 25.92120 53.98273 29007 ft 239 kts 188°
2026-04-12 16:59 25.90476 53.98533 29007 ft 239 kts 188°
2026-04-12 16:59 25.88827 53.98796 28990 ft 239 kts 188°
2026-04-12 17:00 25.87184 53.99058 29013 ft 239 kts 187°
2026-04-12 17:00 25.86071 53.99234 29008 ft 239 kts 188°
2026-04-12 17:00 25.84441 53.99492 29011 ft 240 kts 187°
2026-04-12 17:00 25.82788 53.99754 29002 ft 240 kts 187°
2026-04-12 17:01 25.81134 54.00018 29008 ft 240 kts 187°
2026-04-12 17:01 25.79484 54.00279 29012 ft 240 kts 187°
2026-04-12 17:01 25.77831 54.00541 29012 ft 240 kts 187°
2026-04-12 17:01 25.76177 54.00803 29009 ft 240 kts 187°
2026-04-12 17:02 25.74511 54.01278 29013 ft 254 kts 177°
2026-04-12 17:02 25.72842 54.01924 29014 ft 254 kts 177°
2026-04-12 17:02 25.71174 54.02547 29014 ft 253 kts 178°
2026-04-12 17:02 25.69501 54.03161 29014 ft 253 kts 178°
2026-04-12 17:03 25.67830 54.03779 29014 ft 253 kts 178°
2026-04-12 17:03 25.66157 54.04400 29014 ft 253 kts 178°
2026-04-12 17:03 25.64486 54.05019 29011 ft 253 kts 177°
2026-04-12 17:03 25.62814 54.05639 29010 ft 253 kts 177°
2026-04-12 17:04 25.61161 54.06250 29012 ft 254 kts 177°
2026-04-12 17:04 25.59478 54.06871 29012 ft 254 kts 178°
2026-04-12 17:04 25.57792 54.07306 29010 ft 246 kts 184°
2026-04-12 17:04 25.56112 54.07674 29011 ft 247 kts 184°
2026-04-12 17:05 25.54427 54.08058 29009 ft 248 kts 183°
2026-04-12 17:05 25.52735 54.08451 29010 ft 248 kts 183°
2026-04-12 17:05 25.51046 54.08840 29010 ft 248 kts 183°
2026-04-12 17:05 25.49352 54.09229 29010 ft 248 kts 183°
2026-04-12 17:06 25.47661 54.09617 29010 ft 248 kts 183°
2026-04-12 17:06 25.45969 54.10004 29010 ft 248 kts 183°
2026-04-12 17:06 25.44275 54.10393 29010 ft 249 kts 183°
2026-04-12 17:06 25.42579 54.10782 29011 ft 249 kts 183°
2026-04-12 17:07 25.40887 54.11169 29012 ft 248 kts 184°
2026-04-12 17:07 25.39191 54.11556 29010 ft 249 kts 184°
2026-04-12 17:07 25.37496 54.11943 29010 ft 249 kts 184°
2026-04-12 17:07 25.35797 54.12331 29010 ft 250 kts 184°
2026-04-12 17:08 25.34112 54.12717 29013 ft 250 kts 184°
2026-04-12 17:08 25.32405 54.13106 29013 ft 250 kts 184°
2026-04-12 17:08 25.30700 54.13496 29014 ft 250 kts 184°
2026-04-12 17:08 25.28989 54.13885 29013 ft 250 kts 184°
2026-04-12 17:09 25.27279 54.14273 29010 ft 251 kts 184°
2026-04-12 17:09 25.25572 54.14661 29011 ft 251 kts 184°
2026-04-12 17:09 25.23858 54.15051 29011 ft 251 kts 184°
2026-04-12 17:09 25.22149 54.15439 29011 ft 251 kts 184°
2026-04-12 17:10 25.20460 54.15823 29012 ft 251 kts 184°
2026-04-12 17:10 25.18749 54.16211 29012 ft 251 kts 184°
2026-04-12 17:10 25.17042 54.16599 29010 ft 250 kts 184°
2026-04-12 17:10 25.15330 54.16987 29011 ft 250 kts 184°
2026-04-12 17:11 25.13621 54.17373 29014 ft 251 kts 184°
2026-04-12 17:11 25.11910 54.17762 29015 ft 251 kts 184°
2026-04-12 17:11 25.10197 54.18150 29015 ft 251 kts 184°
2026-04-12 17:11 25.08482 54.18539 29014 ft 252 kts 184°
2026-04-12 17:12 25.06767 54.18926 29008 ft 252 kts 184°
2026-04-12 17:12 25.05069 54.19333 29011 ft 257 kts 179°
2026-04-12 17:12 25.03389 54.20250 29021 ft 284 kts 159°
2026-04-12 17:12 25.01961 54.21882 29022 ft 311 kts 136°
2026-04-12 17:13 25.00841 54.23954 29027 ft 316 kts 132°
2026-04-12 17:13 24.99753 54.26045 28919 ft 312 kts 133°
2026-04-12 17:13 24.98656 54.28091 28499 ft 308 kts 134°
2026-04-12 17:13 24.97559 54.30110 27864 ft 306 kts 133°
2026-04-12 17:14 24.96486 54.32126 27230 ft 303 kts 132°
2026-04-12 17:14 24.95313 54.33967 26662 ft 283 kts 146°
2026-04-12 17:14 24.93887 54.35370 26064 ft 270 kts 155°
2026-04-12 17:14 24.92437 54.36671 25473 ft 268 kts 154°
2026-04-12 17:15 24.91010 54.37970 24901 ft 265 kts 154°
2026-04-12 17:15 24.89598 54.39254 24339 ft 262 kts 154°
2026-04-12 17:15 24.88201 54.40519 23791 ft 259 kts 154°
2026-04-12 17:15 24.86814 54.41778 23247 ft 257 kts 154°
2026-04-12 17:16 24.85454 54.43007 22654 ft 255 kts 154°
2026-04-12 17:16 24.84083 54.44245 22047 ft 254 kts 153°
2026-04-12 17:16 24.82717 54.45480 21454 ft 253 kts 153°
2026-04-12 17:16 24.81356 54.46713 20889 ft 254 kts 153°
2026-04-12 17:17 24.79995 54.47947 20378 ft 252 kts 153°
2026-04-12 17:17 24.78637 54.49173 19862 ft 252 kts 152°
2026-04-12 17:17 24.77283 54.50394 19357 ft 251 kts 152°
2026-04-12 17:17 24.75937 54.51612 18865 ft 250 kts 151°
2026-04-12 17:18 24.74597 54.52823 18381 ft 248 kts 151°
2026-04-12 17:18 24.73280 54.54010 17837 ft 247 kts 150°
2026-04-12 17:18 24.71958 54.55204 17295 ft 245 kts 150°
2026-04-12 17:18 24.70649 54.56386 16755 ft 242 kts 150°
2026-04-12 17:19 24.69353 54.57556 16221 ft 240 kts 149°
2026-04-12 17:19 24.68071 54.58711 15690 ft 237 kts 149°
2026-04-12 17:19 24.66800 54.59860 15188 ft 236 kts 148°
2026-04-12 17:19 24.65539 54.60995 14704 ft 233 kts 148°
2026-04-12 17:20 24.64292 54.62119 14220 ft 231 kts 147°
2026-04-12 17:20 24.63038 54.63202 13723 ft 226 kts 152°
2026-04-12 17:20 24.61733 54.64144 13181 ft 223 kts 153°
2026-04-12 17:20 24.60442 54.65080 12642 ft 221 kts 153°
2026-04-12 17:21 24.59171 54.66010 12119 ft 218 kts 153°
2026-04-12 17:21 24.57914 54.66933 11594 ft 216 kts 154°
2026-04-12 17:21 24.56670 54.67841 11093 ft 213 kts 154°
2026-04-12 17:21 24.55443 54.68739 10603 ft 211 kts 155°
2026-04-12 17:22 24.54221 54.69630 10105 ft 211 kts 155°
2026-04-12 17:22 24.53009 54.70515 9592 ft 208 kts 155°
2026-04-12 17:22 24.51813 54.71407 9060 ft 208 kts 151°
2026-04-12 17:22 24.50887 54.72577 8930 ft 199 kts 135°
2026-04-12 17:23 24.50049 54.73768 8486 ft 199 kts 137°
2026-04-12 17:23 24.49184 54.74951 8058 ft 199 kts 137°
2026-04-12 17:23 24.48362 54.76122 8006 ft 198 kts 135°
2026-04-12 17:23 24.47483 54.77390 8011 ft 217 kts 135°
2026-04-12 17:24 24.46514 54.78732 8009 ft 230 kts 135°
2026-04-12 17:24 24.45507 54.80131 8010 ft 237 kts 135°
2026-04-12 17:24 24.44481 54.81568 8008 ft 239 kts 136°
2026-04-12 17:24 24.43397 54.82953 7992 ft 238 kts 137°
2026-04-12 17:25 24.42329 54.84348 7781 ft 240 kts 137°
2026-04-12 17:25 24.41191 54.85652 7575 ft 231 kts 153°
2026-04-12 17:25 24.39741 54.86165 7389 ft 212 kts 186°
2026-04-12 17:25 24.38323 54.85995 7219 ft 206 kts 196°
2026-04-12 17:26 24.36921 54.85732 6878 ft 204 kts 197°
2026-04-12 17:26 24.35523 54.85463 6473 ft 203 kts 197°
2026-04-12 17:26 24.34154 54.85199 5796 ft 199 kts 198°
2026-04-12 17:26 24.32759 54.84925 5192 ft 208 kts 196°
2026-04-12 17:27 24.31377 54.84586 5018 ft 198 kts 210°
2026-04-12 17:27 24.30412 54.83617 4776 ft 188 kts 243°
2026-04-12 17:27 24.29930 54.82290 4473 ft 186 kts 249°
2026-04-12 17:27 24.29323 54.81037 3983 ft 187 kts 240°
2026-04-12 17:28 24.28578 54.79860 3323 ft 190 kts 236°
2026-04-12 17:28 24.27816 54.78712 3004 ft 177 kts 236°
2026-04-12 17:28 24.27119 54.77678 2996 ft 162 kts 235°
2026-04-12 17:28 24.26471 54.76746 3004 ft 147 kts 234°
2026-04-12 17:29 24.25856 54.75892 3000 ft 141 kts 233°
2026-04-12 17:29 24.25215 54.75051 3011 ft 146 kts 231°
2026-04-12 17:29 24.24549 54.74212 3013 ft 146 kts 230°
2026-04-12 17:29 24.23885 54.73365 3009 ft 146 kts 237°
2026-04-12 17:30 24.23728 54.72280 2992 ft 153 kts 280°
2026-04-12 17:30 24.24401 54.71369 2994 ft 164 kts 317°
2026-04-12 17:30 24.25171 54.70494 3009 ft 159 kts 301°
2026-04-12 17:30 24.25868 54.69539 3005 ft 162 kts 302°
2026-04-12 17:31 24.26577 54.68565 3012 ft 170 kts 300°
2026-04-12 17:31 24.27341 54.67481 3008 ft 187 kts 302°
2026-04-12 17:31 24.28167 54.66339 3009 ft 194 kts 302°
2026-04-12 17:31 24.29034 54.65138 2996 ft 206 kts 303°
2026-04-12 17:32 24.29936 54.63890 2995 ft 211 kts 303°
2026-04-12 17:32 24.30840 54.62614 2997 ft 213 kts 303°
2026-04-12 17:32 24.31752 54.61355 3012 ft 206 kts 303°
2026-04-12 17:32 24.32602 54.60163 3009 ft 192 kts 302°
2026-04-12 17:33 24.33376 54.59079 3005 ft 165 kts 303°
2026-04-12 17:33 24.34042 54.58143 2924 ft 150 kts 300°
2026-04-12 17:33 24.34676 54.57245 2720 ft 150 kts 302°
2026-04-12 17:33 24.35341 54.56317 2488 ft 158 kts 301°
2026-04-12 17:34 24.36022 54.55357 2249 ft 160 kts 303°
2026-04-12 17:34 24.36716 54.54394 2007 ft 161 kts 302°
2026-04-12 17:34 24.37408 54.53416 1763 ft 162 kts 303°
2026-04-12 17:34 24.38079 54.52480 1529 ft 146 kts 304°
2026-04-12 17:35 24.38609 54.51735 1331 ft 111 kts 301°
2026-04-12 17:35 24.39058 54.51090 1169 ft 104 kts 303°
2026-04-12 17:35 24.39506 54.50465 1014 ft 105 kts 303°
2026-04-12 17:35 24.39958 54.49855 862 ft 102 kts 302°
2026-04-12 17:36 24.40378 54.49237 712 ft 101 kts 302°
2026-04-12 17:36 24.40804 54.48644 562 ft 96 kts 302°
2026-04-12 17:36 24.41217 54.48082 416 ft 95 kts 303°
2026-04-12 17:36 24.41612 54.47505 262 ft 97 kts 303°
2026-04-12 17:37 24.42038 54.46918 86 ft 99 kts 305°
2026-04-12 17:37 24.42447 54.46353 25 ft 85 kts 307°
2026-04-12 17:37 24.42727 54.45967 18 ft 37 kts 309°
2026-04-12 17:37 24.42843 54.45805 17 ft 24 kts 308°
2026-04-12 17:38 24.42936 54.45671 18 ft 21 kts 304°
2026-04-12 17:38 24.42980 54.45536 19 ft 17 kts 287°
2026-04-12 17:38 24.43000 54.45392 19 ft 22 kts 276°
2026-04-12 17:38 24.43021 54.45259 19 ft 14 kts 275°
2026-04-12 17:39 24.42973 54.45183 19 ft 13 kts 215°
2026-04-12 17:39 24.42938 54.45118 18 ft 8 kts 267°
2026-04-12 17:39 24.42938 54.45111 18 ft 0 kts 267°